GW3550 Weather Reports


Display with metric or nautical units.
time (UTC)temp
F
wind
direction
speed
MPH
gust
MPH
rain 1hr
in
rain 24hr
in
rain mn
in
humidity
%
barometer
mb
20260831163405 86 251 2.0 2.0 0.00 0.00 0.00 68 1024.8
20260831162904 84 333 0.0 3.0 0.00 0.00 0.00 71 1024.6
20260831162359 85 18 3.0 3.0 0.00 0.00 0.00 71 1024.6
20260831161857 86 257 1.0 3.0 0.00 0.00 0.00 70 1024.6
20260831161354 86 123 0.0 2.0 0.00 0.00 0.00 70 1024.6
20260831160849 87 249 1.0 2.0 0.00 0.00 0.00 69 1024.7
20260831160344 86 259 1.0 2.0 0.00 0.00 0.00 72 1024.7
20260831155839 85 25 3.0 4.0 0.00 0.00 0.00 73 1024.8
20260831155338 87 230 0.0 2.0 0.00 0.00 0.00 70 1025.0
20260831154834 85 239 1.0 3.0 0.00 0.00 0.00 73 1024.9
20260831154331 84 264 0.0 1.0 0.00 0.00 0.00 74 1024.9
20260831153829 83 227 0.0 1.0 0.00 0.00 0.00 77 1025.0
20260831153325 85 275 1.0 2.0 0.00 0.00 0.00 75 1024.9
20260831152821 87 250 1.0 3.0 0.00 0.00 0.00 73 1024.7
20260831152317 86 352 0.0 0.0 0.00 0.00 0.00 73 1024.9
20260831151812 86 215 0.0 0.0 0.00 0.00 0.00 73 1024.9
20260831151311 86 242 0.0 2.0 0.00 0.00 0.00 75 1024.8
20260831150806 86 1 2.0 2.0 0.00 0.00 0.00 73 1024.8
20260831150301 85 237 0.0 2.0 0.00 0.00 0.00 77 1025.1
20260831145800 85 255 3.0 3.0 0.00 0.00 0.00 77 1024.8
20260831145257 83 227 0.0 1.0 0.00 0.00 0.00 80 1024.7
20260831144752 83 243 2.0 3.0 0.00 0.00 0.00 80 1024.9
20260831144249 84 247 2.0 3.0 0.00 0.00 0.00 77 1024.7
20260831143748 82 222 0.0 1.0 0.00 0.00 0.00 80 1024.7
20260831143243 82 260 1.0 4.0 0.00 0.00 0.00 81 1024.9
20260831142739 82 251 0.0 1.0 0.00 0.00 0.00 79 1024.8
20260831142234 82 244 2.0 3.0 0.00 0.00 0.00 82 1024.8
20260831141733 82 270 1.0 2.0 0.00 0.00 0.00 83 1024.9
20260831141228 82 260 1.0 3.0 0.00 0.00 0.00 82 1024.9
20260831140729 81 228 0.0 1.0 0.00 0.00 0.00 82 1024.9
20260831140223 81 224 0.0 2.0 0.00 0.00 0.00 82 1024.5
20260831135721 82 207 0.0 0.0 0.00 0.00 0.00 81 1024.6
20260831135217 82 237 0.0 0.0 0.00 0.00 0.00 82 1024.5
20260831134712 81 248 0.0 0.0 0.00 0.00 0.00 82 1024.5
20260831134209 81 242 0.0 0.0 0.00 0.00 0.00 83 1024.7
20260831133707 81 231 0.0 0.0 0.00 0.00 0.00 83 1024.7
20260831133202 82 230 0.0 0.0 0.00 0.00 0.00 82 1024.7
20260831132657 81 2 0.0 0.0 0.00 0.00 0.00 82 1024.7
20260831132156 81 3 0.0 1.0 0.00 0.00 0.00 82 1024.5
20260831131651 80 314 0.0 0.0 0.00 0.00 0.00 84 1024.7
20260831131148 79 313 0.0 0.0 0.00 0.00 0.00 85 1024.6
20260831130643 78 314 0.0 0.0 0.00 0.00 0.00 85 1024.7
20260831130138 78 314 0.0 1.0 0.00 0.00 0.00 87 1024.7
20260831125636 77 313 0.0 0.0 0.00 0.00 0.00 87 1024.7
20260831125133 77 314 0.0 1.0 0.00 0.00 0.00 88 1024.7
20260831124628 77 226 0.0 0.0 0.00 0.00 0.00 87 1024.8
20260831124124 78 226 0.0 0.0 0.00 0.00 0.00 86 1024.7
20260831123624 77 226 0.0 0.0 0.00 0.00 0.00 88 1024.7
20260831123123 76 226 0.0 0.0 0.00 0.00 0.00 89 1024.8
20260831122622 76 226 0.0 0.0 0.00 0.00 0.00 91 1024.8
20260831122119 74 226 0.0 0.0 0.00 0.00 0.00 95 1024.7
20260831121618 73 226 0.0 0.0 0.00 0.00 0.00 95 1024.6
20260831121114 73 226 0.0 0.0 0.00 0.00 0.00 97 1024.5
20260831120609 72 226 0.0 0.0 0.00 0.00 0.00 99 1024.4
20260831120104 71 226 0.0 0.0 0.00 0.00 0.00 99 1024.4
20260831115600 70 226 0.0 0.0 0.00 0.00 0.00 99 1024.4
20260831115055 70 226 0.0 0.0 0.00 0.00 0.00 99 1024.3
20260831114554 70 226 0.0 0.0 0.00 0.00 0.00 99 1024.2
20260831114049 69 227 0.0 0.0 0.00 0.00 0.00 99 1024.2
20260831113548 69 227 0.0 0.0 0.00 0.00 0.00 99 1024.3
20260831113044 69 227 0.0 0.0 0.00 0.00 0.00 99 1024.4
20260831112543 69 227 0.0 0.0 0.00 0.00 0.00 99 1024.2
20260831112038 69 227 0.0 0.0 0.00 0.00 0.00 99 1024.2
20260831111535 69 227 0.0 0.0 0.00 0.00 0.00 99 1024.1
20260831111030 69 227 0.0 0.0 0.00 0.00 0.00 99 1023.9
20260831110525 69 227 0.0 0.0 0.00 0.00 0.00 99 1023.9
20260831110020 69 227 0.0 0.0 0.00 0.00 0.00 99 1023.9
20260831105519 69 227 0.0 0.0 0.00 0.00 0.00 99 1023.9
20260831105014 69 227 0.0 0.0 0.00 0.00 0.00 99 1023.8
20260831104511 69 227 0.0 0.0 0.00 0.00 0.00 99 1023.7
20260831104006 69 227 0.0 0.0 0.00 0.00 0.00 99 1023.5
20260831103501 69 227 0.0 0.0 0.00 0.00 0.00 99 1023.6
20260831102957 69 227 0.0 0.0 0.00 0.00 0.00 99 1023.5
20260831102456 69 227 0.0 0.0 0.00 0.00 0.00 99 1023.7
20260831101951 69 227 0.0 0.0 0.00 0.00 0.00 99 1023.6
20260831101446 69 227 0.0 0.0 0.00 0.00 0.00 99 1023.7
20260831100942 69 227 0.0 0.0 0.00 0.00 0.00 99 1023.5
20260831100438 69 227 0.0 0.0 0.00 0.00 0.00 99 1023.5
20260831095933 69 227 0.0 0.0 0.00 0.00 0.00 99 1023.3
20260831095432 69 227 0.0 0.0 0.00 0.00 0.00 99 1023.5
20260831094927 69 227 0.0 0.0 0.00 0.00 0.00 99 1023.3
20260831094423 69 227 0.0 0.0 0.00 0.00 0.00 99 1023.4
20260831093919 69 227 0.0 0.0 0.00 0.00 0.00 99 1023.4
20260831093414 69 227 0.0 0.0 0.00 0.00 0.00 99 1023.3
20260831092911 70 227 0.0 0.0 0.00 0.00 0.00 99 1023.3
20260831092406 70 227 0.0 0.0 0.00 0.00 0.00 99 1023.5
20260831091901 70 227 0.0 0.0 0.00 0.00 0.00 99 1023.4
20260831091356 70 227 0.0 0.0 0.00 0.00 0.00 99 1023.4
20260831090852 70 227 0.0 0.0 0.00 0.00 0.00 99 1023.5
20260831090348 70 227 0.0 0.0 0.00 0.00 0.00 99 1023.3
20260831085845 70 227 0.0 0.0 0.00 0.00 0.00 99 1023.3
20260831085344 70 227 0.0 0.0 0.00 0.00 0.00 99 1023.1
20260831084844 70 227 0.0 0.0 0.00 0.00 0.00 99 1023.0
20260831084340 70 227 0.0 0.0 0.00 0.00 0.00 99 1023.2
20260831083837 70 227 0.0 0.0 0.00 0.00 0.00 99 1023.1
20260831083332 70 227 0.0 0.0 0.00 0.00 0.00 99 1023.1
20260831082830 71 227 0.0 0.0 0.00 0.00 0.00 99 1023.0
20260831082326 71 227 0.0 0.0 0.00 0.00 0.00 99 1023.0
20260831081821 71 227 0.0 0.0 0.00 0.00 0.00 99 1023.1
20260831081317 71 227 0.0 0.0 0.00 0.00 0.00 99 1023.0
20260831080812 71 227 0.0 0.0 0.00 0.00 0.00 99 1023.1
20260831080307 71 227 0.0 0.0 0.00 0.00 0.00 99 1023.1
20260831075803 71 227 0.0 0.0 0.00 0.00 0.00 99 1023.1
20260831075258 71 227 0.0 0.0 0.00 0.00 0.00 99 1023.1
20260831074758 71 227 0.0 0.0 0.00 0.00 0.00 99 1023.1
20260831074251 71 227 0.0 0.0 0.00 0.00 0.00 99 1023.3
20260831073748 71 227 0.0 0.0 0.00 0.00 0.00 99 1022.9
20260831073246 71 227 0.0 0.0 0.00 0.00 0.00 99 1022.8
20260831072741 71 227 0.0 0.0 0.00 0.00 0.00 99 1022.8
20260831072233 71 227 0.0 0.0 0.00 0.00 0.00 99 1022.9
20260831071732 71 227 0.0 0.0 0.00 0.00 0.00 99 1022.9
20260831071226 71 227 0.0 0.0 0.00 0.00 0.00 99 1022.8
20260831070721 71 227 0.0 0.0 0.00 0.00 0.00 99 1022.8
20260831070220 71 227 0.0 0.0 0.00 0.00 0.00 99 1023.0
20260831065714 71 227 0.0 0.0 0.00 0.00 0.00 99 1022.9
20260831065212 71 227 0.0 0.0 0.00 0.00 0.00 99 1022.8
20260831064707 71 227 0.0 0.0 0.00 0.00 0.00 99 1022.7
20260831064202 71 227 0.0 0.0 0.00 0.00 0.00 99 1022.7
20260831063658 71 227 0.0 0.0 0.00 0.00 0.00 99 1022.8
20260831063148 72 227 0.0 0.0 0.00 0.00 0.00 98 1023.0
20260831062642 72 227 0.0 0.0 0.00 0.00 0.00 99 1022.8
20260831062136 72 227 0.0 0.0 0.00 0.00 0.00 99 1022.9
20260831061634 72 227 0.0 0.0 0.00 0.00 0.00 99 1022.9
20260831061131 72 227 0.0 0.0 0.00 0.00 0.00 99 1022.9
20260831060626 72 227 0.0 0.0 0.00 0.00 0.00 99 1023.0
20260831060120 72 227 0.0 0.0 0.00 0.00 0.00 98 1023.0
20260831055614 72 227 0.0 0.0 0.00 0.00 0.00 98 1023.0
20260831055110 72 227 0.0 0.0 0.00 0.00 0.00 98 1023.0
20260831054610 72 227 0.0 0.0 0.00 0.00 0.00 98 1022.9
20260831054109 73 227 0.0 0.0 0.00 0.00 0.00 98 1022.9
20260831053608 72 227 0.0 0.0 0.00 0.00 0.00 98 1023.2
20260831053102 73 227 0.0 0.0 0.00 0.00 0.00 98 1023.1
20260831052601 73 227 0.0 0.0 0.00 0.00 0.00 98 1023.3
20260831052056 73 227 0.0 0.0 0.00 0.00 0.00 97 1023.3
20260831051554 73 227 0.0 0.0 0.00 0.00 0.00 97 1023.2
20260831051053 73 227 0.0 0.0 0.00 0.00 0.00 97 1023.1
20260831050553 73 227 0.0 0.0 0.00 0.00 0.00 97 1023.1
20260831050051 73 227 0.0 0.0 0.00 0.00 0.00 97 1023.1
20260831045551 73 227 0.0 0.0 0.00 0.00 0.00 96 1023.2
20260831045046 74 227 0.0 0.0 0.00 0.00 0.00 96 1023.1
20260831044542 74 227 0.0 0.0 0.00 0.00 0.00 96 1023.1
20260831044037 74 227 0.0 0.0 0.00 0.00 0.00 97 1023.0
20260831043537 74 227 0.0 0.0 0.00 0.00 0.00 97 1023.2
20260831043033 74 227 0.0 0.0 0.00 0.00 0.00 96 1023.4
20260831042532 74 227 0.0 0.0 0.00 0.00 0.00 96 1023.2
20260831042032 74 227 0.0 0.0 0.00 0.00 0.00 96 1023.3
20260831041527 74 227 0.0 0.0 0.00 0.00 0.00 96 1023.3
20260831041021 74 227 0.0 0.0 0.00 0.00 0.00 96 1023.0
20260831040516 74 227 0.0 0.0 0.00 0.00 0.00 96 1023.2
20260831040016 74 227 0.0 0.0 0.00 0.00 0.00 96 1023.3
20260831035514 74 227 0.0 0.0 0.00 0.00 0.00 96 1023.3
20260831035009 74 227 0.0 0.0 0.00 0.00 0.00 95 1023.3
20260831034457 74 227 0.0 0.0 0.00 0.00 0.00 95 1023.4
20260831033953 75 227 0.0 0.0 0.00 0.00 0.00 95 1023.2
20260831033448 75 227 0.0 0.0 0.00 0.00 0.00 94 1023.3
20260831032943 75 227 0.0 0.0 0.00 0.00 0.00 94 1023.4
20260831032437 75 227 0.0 0.0 0.00 0.00 0.00 94 1023.1
20260831031932 75 227 0.0 0.0 0.00 0.00 0.00 94 1023.2
20260831031426 75 227 0.0 0.0 0.00 0.00 0.00 93 1023.3
20260831030920 76 227 0.0 0.0 0.00 0.00 0.00 93 1023.2
20260831030420 76 227 0.0 0.0 0.00 0.00 0.00 92 1023.4
20260831025918 76 227 0.0 0.0 0.00 0.00 0.00 92 1023.4
20260831025417 75 227 0.0 0.0 0.00 0.00 0.00 92 1023.4
20260831024913 75 227 0.0 0.0 0.00 0.00 0.00 92 1023.5
20260831024413 75 227 0.0 0.0 0.00 0.00 0.00 92 1023.5
20260831023908 76 227 0.0 0.0 0.00 0.00 0.00 91 1023.4
20260831023406 76 227 0.0 0.0 0.00 0.00 0.00 90 1023.6
20260831022901 76 227 0.0 0.0 0.00 0.00 0.00 90 1023.4
20260831022400 77 227 0.0 0.0 0.00 0.00 0.00 89 1023.5
20260831021855 76 227 0.0 0.0 0.00 0.00 0.00 89 1023.5
20260831021354 76 227 0.0 0.0 0.00 0.00 0.00 89 1023.6
20260831020850 77 227 0.0 0.0 0.00 0.00 0.00 88 1023.3
20260831020350 77 227 0.0 0.0 0.00 0.00 0.00 89 1023.3
20260831015845 77 82 0.0 0.0 0.00 0.00 0.00 88 1023.0
20260831015341 76 82 0.0 0.0 0.00 0.00 0.00 89 1023.2
20260831014841 77 82 0.0 0.0 0.00 0.00 0.00 88 1023.1
20260831014336 77 82 0.0 0.0 0.00 0.00 0.00 88 1023.2
20260831013832 77 82 0.0 0.0 0.00 0.00 0.00 88 1023.1
20260831013331 77 82 0.0 0.0 0.00 0.00 0.00 87 1023.1
20260831012826 77 82 0.0 0.0 0.00 0.00 0.00 87 1023.1
20260831012322 78 82 0.0 0.0 0.00 0.00 0.00 86 1022.9
20260831011821 78 82 0.0 0.0 0.00 0.00 0.00 85 1022.9
20260831011316 78 82 0.0 0.0 0.00 0.00 0.00 85 1022.9
20260831010812 78 82 0.0 0.0 0.00 0.00 0.00 84 1022.6
20260831010307 78 82 0.0 0.0 0.00 0.00 0.00 83 1022.6
20260831005803 78 81 0.0 0.0 0.00 0.00 0.00 83 1022.6
20260831005258 79 82 0.0 0.0 0.00 0.00 0.00 83 1022.4
20260831004752 79 82 0.0 0.0 0.00 0.00 0.00 82 1022.4
20260831004248 79 82 0.0 0.0 0.00 0.00 0.00 81 1022.2
20260831003743 80 81 0.0 0.0 0.00 0.00 0.00 80 1022.3
20260831003240 80 82 0.0 0.0 0.00 0.00 0.00 80 1022.3
20260831002739 81 81 0.0 0.0 0.00 0.00 0.00 79 1022.4
20260831002238 81 81 0.0 1.0 0.00 0.00 0.00 78 1022.3
20260831001735 81 81 1.0 2.0 0.00 0.00 0.00 78 1022.2
20260831001229 82 51 0.0 0.0 0.00 0.00 0.00 77 1022.2
20260831000726 82 51 1.0 2.0 0.00 0.00 0.00 76 1022.3
20260831000221 82 10 0.0 0.0 0.00 0.00 0.00 77 1022.4
20260830235720 82 10 0.0 0.0 0.00 0.00 0.00 76 1022.2
20260830235215 83 10 0.0 0.0 0.00 0.00 0.00 75 1022.4
20260830234710 83 10 0.0 0.0 0.00 0.00 0.00 74 1022.0
20260830234206 84 10 0.0 0.0 0.00 0.00 0.00 73 1022.1
20260830233701 85 10 0.0 1.0 0.00 0.00 0.00 72 1022.3
20260830233157 85 22 1.0 2.0 0.00 0.00 0.00 70 1022.3
20260830232652 85 31 1.0 2.0 0.00 0.00 0.00 69 1022.2
20260830232148 85 58 1.0 3.0 0.00 0.00 0.00 69 1022.1
20260830231645 85 59 1.0 3.0 0.00 0.00 0.00 69 1022.0
20260830231144 86 11 2.0 3.0 0.00 0.00 0.00 68 1022.0
20260830230639 86 52 2.0 3.0 0.00 0.00 0.00 67 1022.1
20260830230133 86 30 3.0 4.0 0.00 0.00 0.00 67 1022.0
20260830225628 85 30 2.0 6.0 0.00 0.00 0.00 67 1022.1
20260830225123 85 314 0.0 1.0 0.00 0.00 0.00 68 1021.9
20260830224621 85 184 0.0 1.0 0.00 0.00 0.00 68 1022.0
20260830224117 85 67 1.0 2.0 0.00 0.00 0.00 68 1022.1
20260830223614 85 34 2.0 4.0 0.00 0.00 0.00 67 1022.0
20260830223109 85 108 2.0 3.0 0.00 0.00 0.00 66 1022.0
20260830222609 86 78 1.0 4.0 0.00 0.00 0.00 66 1022.0
20260830222105 87 68 4.0 6.0 0.00 0.00 0.00 63 1022.1
20260830221601 88 17 4.0 7.0 0.00 0.00 0.00 61 1022.0
20260830221057 88 19 0.0 3.0 0.00 0.00 0.00 62 1022.0
20260830220556 88 17 2.0 2.0 0.00 0.00 0.00 61 1021.9
20260830220049 88 120 1.0 1.0 0.00 0.00 0.00 61 1021.9
20260830215544 86 69 2.0 2.0 0.00 0.00 0.00 65 1022.1
20260830215038 85 169 0.0 1.0 0.00 0.00 0.00 68 1022.1
20260830214533 85 343 2.0 2.0 0.00 0.00 0.00 65 1022.1
20260830214028 86 199 0.0 3.0 0.00 0.00 0.00 66 1022.1
20260830213527 88 217 1.0 3.0 0.00 0.00 0.00 63 1022.1
20260830213023 89 313 0.0 2.0 0.00 0.00 0.00 61 1022.1
20260830212518 89 246 0.0 1.0 0.00 0.00 0.00 61 1021.9
20260830212013 87 286 0.0 0.0 0.00 0.00 0.00 62 1021.9
20260830211508 84 339 0.0 0.0 0.00 0.00 0.00 74 1022.2
20260830211003 84 347 0.0 0.0 0.00 0.00 0.00 74 1022.3
20260830210503 85 354 0.0 0.0 0.00 0.00 0.00 71 1022.2
20260830210002 85 3 0.0 0.0 0.00 0.00 0.00 71 1022.2
20260830205500 85 3 0.0 0.0 0.00 0.00 0.00 68 1022.4
20260830204955 85 3 0.0 0.0 0.00 0.00 0.00 68 1022.4
20260830204454 85 326 0.0 1.0 0.00 0.00 0.00 67 1022.4
20260830203944 85 104 1.0 2.0 0.00 0.00 0.00 68 1022.4
20260830203440 85 17 1.0 4.0 0.00 0.00 0.00 67 1022.5
20260830202939 87 52 2.0 4.0 0.00 0.00 0.00 64 1022.5
20260830202434 87 39 3.0 4.0 0.00 0.00 0.00 63 1022.5
20260830201930 86 190 1.0 3.0 0.00 0.00 0.00 66 1022.5
20260830201424 87 358 3.0 6.0 0.00 0.00 0.00 62 1022.4
20260830200920 88 36 4.0 7.0 0.00 0.00 0.00 62 1022.5
20260830200419 88 21 3.0 4.0 0.00 0.00 0.00 63 1022.5
20260830195908 91 140 2.0 3.0 0.00 0.00 0.00 60 1022.6
20260830195408 91 251 2.0 3.0 0.00 0.00 0.00 58 1022.7
20260830194907 92 188 0.0 2.0 0.00 0.00 0.00 58 1022.8
20260830194406 90 203 2.0 2.0 0.00 0.00 0.00 60 1022.9
20260830193901 86 95 0.0 1.0 0.00 0.00 0.00 69 1022.7
20260830193400 84 184 0.0 1.0 0.00 0.00 0.00 72 1023.1
20260830192856 85 135 2.0 3.0 0.00 0.00 0.00 68 1023.0
20260830192356 86 84 0.0 3.0 0.00 0.00 0.00 67 1023.2
20260830191851 86 147 2.0 3.0 0.00 0.00 0.00 65 1023.1
20260830191346 87 82 0.0 2.0 0.00 0.00 0.00 66 1023.1
20260830190842 86 79 1.0 4.0 0.00 0.00 0.00 69 1023.3
20260830190341 84 182 0.0 1.0 0.00 0.00 0.00 74 1023.4
20260830185834 85 228 1.0 1.0 0.00 0.00 0.00 71 1023.4
20260830185330 85 192 0.0 0.0 0.00 0.00 0.00 70 1023.4
20260830184825 84 203 0.0 1.0 0.00 0.00 0.00 70 1023.7
20260830184324 85 209 0.0 1.0 0.00 0.00 0.00 69 1023.6
20260830183819 85 235 2.0 3.0 0.00 0.00 0.00 70 1023.6
20260830183319 84 83 0.0 2.0 0.00 0.00 0.00 70 1023.7
20260830182815 84 11 1.0 2.0 0.00 0.00 0.00 70 1023.7
20260830182310 85 108 2.0 3.0 0.00 0.00 0.00 69 1023.9
20260830181807 84 114 1.0 3.0 0.00 0.00 0.00 72 1023.8
20260830181301 85 202 0.0 1.0 0.00 0.00 0.00 70 1023.9
20260830180801 86 79 2.0 4.0 0.00 0.00 0.00 69 1024.1
20260830180255 89 357 1.0 2.0 0.00 0.00 0.00 64 1024.2
20260830175749 85 206 0.0 1.0 0.00 0.00 0.00 71 1024.5
20260830175245 87 48 2.0 4.0 0.00 0.00 0.00 68 1024.4
20260830174745 84 55 1.0 6.0 0.00 0.00 0.00 71 1024.5
20260830174241 85 80 1.0 2.0 0.00 0.00 0.00 70 1024.5
20260830173740 85 87 0.0 2.0 0.00 0.00 0.00 72 1024.6
20260830173235 83 243 0.0 3.0 0.00 0.00 0.00 75 1024.8
20260830172732 84 145 2.0 4.0 0.00 0.00 0.00 73 1024.8
20260830172229 84 27 1.0 2.0 0.00 0.00 0.00 71 1024.9
20260830171724 85 61 1.0 4.0 0.00 0.00 0.00 72 1025.0
20260830171219 85 224 0.0 2.0 0.00 0.00 0.00 73 1024.9
20260830170713 85 68 1.0 2.0 0.00 0.00 0.00 70 1024.9
20260830170213 84 42 3.0 6.0 0.00 0.00 0.00 73 1025.1
20260830165712 86 357 1.0 3.0 0.00 0.00 0.00 71 1025.1
20260830165208 87 100 4.0 6.0 0.00 0.00 0.00 71 1025.1
20260830164704 85 165 0.0 1.0 0.00 0.00 0.00 74 1025.3
20260830164200 83 197 0.0 4.0 0.00 0.00 0.00 77 1025.3
20260830163656 84 220 1.0 3.0 0.00 0.00 0.00 75 1025.4